Starlink 3189

operational
NORAD ID: 51464 Int'l Des: 2022-010 Owner: SPXS Country: US Constellation: starlink
LEOCIRCULAR

Über Starlink 3189

Beschreibung wird geladen...

Live-Position

3D-Globus wird geladen...

Nächste Überflüge

Höhenverlauf

Altitude vs Time

uPlot chart will show altitude changes over time

Zweizeiliger Elementsatz

1 51464U 22010J 25351.55491715 .00001917 00000-0 13847-3 0 9992
2 51464 53.2165 287.8354 0001412 84.8461 275.2692 15.08850586214927
Epoch: 17. Dez. 2025 • Age: 18 hours

Aktueller Status

Höhe 540.0 km
Geschwindigkeit 7.60 km/s
Subsatellitenpunkt 22.35°N, 112.65°W
Startdatum 3. Feb. 2022
Alter 3.8 years
Typ internet

Technische Details

Klassifizierung Payload
Masse 297.00 kg
Trockenmasse 275.00 kg
Gesamtmasse 297.00 kg
Länge 0.20 m
Durchmesser 2.80 m
Spannweite 9.00 m
Form Box + pan
Hersteller SPXS
Bus-Typ Starlink
Phasenstatus In Orbit
Besitzer/Staat SPXS/US

Große Konstellationen

Loading constellations...